This is the latest recevied weather packets stored in our database for station/object DK0KTL-4. If no packets are shown the sender has not sent any weather packets the latest 10 day(s).
| Time | Temp. | Humidity | Pressure | Rain* | Wind** | Luminosity | Snow |
|---|---|---|---|---|---|---|---|
| 1787916348 | 23.33° C | 73% | 1011.3 hPa | 0 mm | - | - | - |
| 1787916048 | 23.89° C | 69% | 1011.1 hPa | 0 mm | - | - | - |
| 1787915748 | 23.89° C | 69% | 1010.6 hPa | 0 mm | - | - | - |
| 1787915447 | 23.89° C | 70% | 1010.5 hPa | 0 mm | - | - | - |
| 1787915147 | 23.89° C | 72% | 1010.5 hPa | 0 mm | - | - | - |
| 1787914847 | 23.33° C | 74% | 1010.2 hPa | 0 mm | - | - | - |
| 1787914547 | 23.33° C | 74% | 1010.2 hPa | 0 mm | - | - | - |
| 1787914246 | 22.78° C | 76% | 1010 hPa | 0 mm | - | - | - |
| 1787913946 | 22.78° C | 75% | 1009.3 hPa | 0 mm | - | - | - |
| 1787913345 | 22.78° C | 76% | 1008.7 hPa | 0 mm | - | - | - |
| 1787913045 | 22.78° C | 76% | 1008.8 hPa | 0 mm | - | - | - |
| 1787912444 | 22.22° C | 77% | 1008 hPa | 0 mm | - | - | - |
| 1787912144 | 22.22° C | 77% | 1008.2 hPa | 0 mm | - | - | - |
| 1787911844 | 22.22° C | 77% | 1008.1 hPa | 0 mm | - | - | - |
| 1787911543 | 22.22° C | 76% | 1007.9 hPa | 0 mm | - | - | - |
| 1787911243 | 22.22° C | 77% | 1007.9 hPa | 0 mm | - | - | - |
| 1787910943 | 22.22° C | 76% | 1007.4 hPa | 0 mm | - | - | - |
| 1787910643 | 22.22° C | 79% | 1007.4 hPa | 0 mm | - | - | - |
| 1787910342 | 22.22° C | 76% | 1007.3 hPa | 0 mm | - | - | - |
| 1787910042 | 22.22° C | 77% | 1007.7 hPa | 0 mm | - | - | - |
| 1787909742 | 22.22° C | 76% | 1008 hPa | 0 mm | - | - | - |
| 1787909441 | 21.67° C | 78% | 1008.4 hPa | 0 mm | - | - | - |
| 1787909141 | 21.67° C | 77% | 1008.4 hPa | 0 mm | - | - | - |
| 1787908841 | 21.67° C | 77% | 1008.3 hPa | 0 mm | - | - | - |
| 1787908540 | 21.67° C | 77% | 1008.4 hPa | 0 mm | - | - | - |
* Rain latest hour (hover to see other rain measurements)
** Current wind speed in m/s (hover to see current wind gust speed)